SICH-1
1 23657U 95046A   06194.75838991  .00000100  00000-0  97857-5 0  7986
2 23657 082.5278 033.1179 0022342 276.8302 083.0340 14.81371704585925
NOAA-15
1 25338U 98030A   06193.80022320  .00000114  00000-0  67321-4 0 05790
2 25338 098.5148 195.3356 0009769 302.9851 057.0359 14.24592110424366
RESURS
1 25394U 98043A   06193.78860164 -.00000002  00000-0  17453-4 0  4101
2 25394 098.4921 255.8143 0002357 089.0346 271.1103 14.24105934416046
FENGYUN1
1 25730U 99025A   06194.55661129 -.00000300  00000-0 -14149-3 0  7745
2 25730 098.6252 186.1067 0015498 066.4371 293.8416 14.11811069369737
OKEAN-0
1 25860U 99039A   06194.62902621  .00000070  00000-0  18059-4 0  7980
2 25860 097.7318 207.7289 0001822 061.2925 298.8471 14.73375797375648
NOAA-16
1 26536U 00055A   06193.86157102 -.00000131  00000-0 -46466-4 0 09550
2 26536 099.0676 160.7844 0011372 050.0759 310.1394 14.12353399299204
NOAA-17
1 27453U 02032A   06193.75126450  .00000021  00000-0  27893-4 0 09746
2 27453 098.6200 265.4659 0011780 006.2048 353.9292 14.23792289210410
NOAA-18
1 28654U 05018A   06194.30310847 -.00000027  00000-0  89016-5 0  5529
2 28654 098.7889 137.0229 0014642 143.8861 216.3308 14.10974051 59063
HUBBLE
1 20580U 90037B   06193.51148735  .00000376  00000-0  16423-4 0 06765
2 20580 028.4684 244.7990 0003875 098.5786 261.5241 15.00063945688905
UARS
1 21701U 91063B   06193.95549012  .00002835  00000-0  60277-4 0 08458
2 21701 056.9787 341.3513 0097471 257.9665 101.0453 15.43940752813289
PO-34
1 25520U 98064B   06193.68101086  .00000702  00000-0  25074-4 0 05302
2 25520 028.4587 220.5949 0005959 153.8394 206.2551 15.16748337425920
ISS
1 25544U 98067A   06195.01557917  .00008821  00000-0  58740-4 0  2895
2 25544 051.6318 049.2801 0010872 074.1247 087.3531 15.76292860437392
OO-38
1 26063U 00004C   06193.72895658 -.00000011  00000-0  16348-4 0 06671
2 26063 100.1886 129.3675 0037245 035.8957 324.4714 14.35770872338344
NO-45
1 26932U 01043D   06194.74133049 -.00000099  00000-0 -62653-5 0  3600
2 26932 067.0514 298.9902 0008513 250.9319 109.0860 14.29528996249769
UWE-1
1 28892U 05043C   06193.77095192  .00000168  00000-0  45240-4 0  4999
2 28892 098.1628 091.5733 0018503 090.2947 270.0384 14.59372098 37700
CO-58
1 28895U 05043F   06194.37823432  .00000005  00000-0  10765-4 0  4832
2 28895 098.1649 092.2595 0019107 089.5493 270.7876 14.59423759 37678
NCUBE2
1 28897U 05043H   06194.21562961  .00000123  00000-0  35640-4 0   920
2 28897 098.1621 092.0848 0018255 091.3256 269.0032 14.59579854 29922
